| time (UTC) | temp F | wind direction | speed MPH | gust MPH | rain 1hr in | rain 24hr in | rain mn in | humidity % | barometer mb |
| 20260505234000 | 44 | 313 | 2.0 | 6.0 | 0.00 | 0.00 | 0.00 | 82 | 1013.4 |
| 20260505232459 | 44 | 337 | 4.0 | 8.0 | 0.00 | 0.00 | 0.00 | 82 | 1013.3 |
| 20260505231959 | 44 | 337 | 3.0 | 6.0 | 0.00 | 0.00 | 0.00 | 81 | 1013.4 |
| 20260505231500 | 44 | 308 | 3.0 | 6.0 | 0.00 | 0.00 | 0.00 | 81 | 1013.5 |
| 20260505230959 | 44 | 310 | 5.0 | 5.0 | 0.00 | 0.00 | 0.00 | 81 | 1013.5 |
| 20260505230459 | 45 | 343 | 2.0 | 5.0 | 0.00 | 0.00 | 0.00 | 81 | 1013.6 |
| 20260505230002 | 45 | 320 | 2.0 | 5.0 | 0.00 | 0.00 | 0.00 | 81 | 1013.6 |
| 20260505224959 | 45 | 333 | 2.0 | 5.0 | 0.00 | 0.00 | 0.00 | 81 | 1013.5 |
| 20260505224459 | 45 | 348 | 2.0 | 6.0 | 0.00 | 0.00 | 0.00 | 81 | 1013.6 |
| 20260505224000 | 45 | 15 | 5.0 | 7.0 | 0.00 | 0.00 | 0.00 | 81 | 1013.6 |
| 20260505223458 | 45 | 338 | 3.0 | 6.0 | 0.00 | 0.00 | 0.00 | 81 | 1013.6 |
| 20260505222958 | 45 | 355 | 3.0 | 8.0 | 0.00 | 0.00 | 0.00 | 81 | 1013.5 |
| 20260505222459 | 46 | 355 | 5.0 | 8.0 | 0.00 | 0.00 | 0.00 | 80 | 1013.6 |
| 20260505221959 | 46 | 355 | 3.0 | 8.0 | 0.00 | 0.00 | 0.00 | 80 | 1013.7 |
| 20260505221458 | 46 | 345 | 3.0 | 8.0 | 0.00 | 0.00 | 0.00 | 80 | 1013.6 |
| 20260505214959 | 47 | 341 | 8.0 | 13.0 | 0.00 | 0.00 | 0.00 | 80 | 1013.6 |
| 20260505214500 | 47 | 360 | 9.0 | 12.0 | 0.00 | 0.00 | 0.00 | 80 | 1013.6 |
| 20260505213959 | 47 | 349 | 8.0 | 12.0 | 0.00 | 0.00 | 0.00 | 81 | 1013.6 |
| 20260505213001 | 47 | 348 | 5.0 | 11.0 | 0.00 | 0.00 | 0.00 | 80 | 1013.7 |
| 20260505212459 | 47 | 9 | 7.0 | 10.0 | 0.00 | 0.00 | 0.00 | 80 | 1013.7 |
| 20260505211959 | 48 | 5 | 5.0 | 13.0 | 0.00 | 0.00 | 0.00 | 80 | 1013.6 |
| 20260505211459 | 48 | 346 | 8.0 | 13.0 | 0.00 | 0.00 | 0.00 | 80 | 1013.6 |
| 20260505210959 | 48 | 340 | 10.0 | 13.0 | 0.00 | 0.00 | 0.00 | 80 | 1013.6 |
| 20260505210500 | 48 | 345 | 8.0 | 13.0 | 0.00 | 0.00 | 0.00 | 80 | 1013.6 |
| 20260505205958 | 48 | 345 | 4.0 | 12.0 | 0.00 | 0.00 | 0.00 | 79 | 1013.6 |
| 20260505205500 | 48 | 355 | 4.0 | 12.0 | 0.00 | 0.00 | 0.00 | 79 | 1013.5 |
| 20260505205001 | 48 | 351 | 8.0 | 12.0 | 0.00 | 0.00 | 0.00 | 79 | 1013.5 |
| 20260505204458 | 48 | 355 | 6.0 | 11.0 | 0.00 | 0.00 | 0.00 | 79 | 1013.5 |
| 20260505202958 | 49 | 18 | 9.0 | 13.0 | 0.00 | 0.00 | 0.00 | 78 | 1013.6 |
| 20260505202500 | 49 | 327 | 8.0 | 13.0 | 0.00 | 0.00 | 0.00 | 78 | 1013.6 |
| 20260505201958 | 49 | 345 | 8.0 | 13.0 | 0.00 | 0.00 | 0.00 | 78 | 1013.6 |
| 20260505201458 | 49 | 360 | 8.0 | 14.0 | 0.00 | 0.00 | 0.00 | 77 | 1013.5 |
| 20260505201000 | 49 | 355 | 8.0 | 14.0 | 0.00 | 0.00 | 0.00 | 77 | 1013.4 |
| 20260505195458 | 50 | 9 | 5.0 | 14.0 | 0.00 | 0.00 | 0.00 | 75 | 1013.4 |
| 20260505194458 | 50 | 355 | 8.0 | 12.0 | 0.00 | 0.00 | 0.00 | 74 | 1013.4 |
| 20260505193458 | 50 | 350 | 8.0 | 15.0 | 0.00 | 0.00 | 0.00 | 74 | 1013.4 |
| 20260505192958 | 50 | 5 | 11.0 | 15.0 | 0.00 | 0.00 | 0.00 | 73 | 1013.4 |
| 20260505192458 | 51 | 16 | 8.0 | 14.0 | 0.00 | 0.00 | 0.00 | 74 | 1013.4 |
| 20260505191958 | 51 | 9 | 8.0 | 14.0 | 0.00 | 0.00 | 0.00 | 74 | 1013.3 |
| 20260505191459 | 51 | 351 | 8.0 | 15.0 | 0.00 | 0.00 | 0.00 | 74 | 1013.3 |
| 20260505191000 | 51 | 5 | 14.0 | 14.0 | 0.00 | 0.00 | 0.00 | 74 | 1013.3 |
| 20260505185959 | 52 | 16 | 7.0 | 16.0 | 0.00 | 0.00 | 0.00 | 74 | 1013.2 |
| 20260505185459 | 52 | 22 | 8.0 | 16.0 | 0.00 | 0.00 | 0.00 | 74 | 1013.2 |
| 20260505184958 | 52 | 338 | 11.0 | 15.0 | 0.00 | 0.00 | 0.00 | 73 | 1013.3 |
| 20260505184000 | 52 | 56 | 10.0 | 17.0 | 0.00 | 0.00 | 0.00 | 72 | 1013.3 |
| 20260505183500 | 52 | 24 | 10.0 | 17.0 | 0.00 | 0.00 | 0.00 | 72 | 1013.3 |
| 20260505182959 | 53 | 22 | 9.0 | 17.0 | 0.00 | 0.00 | 0.00 | 71 | 1013.3 |
| 20260505182459 | 53 | 355 | 14.0 | 16.0 | 0.00 | 0.00 | 0.00 | 72 | 1013.2 |
| 20260505181459 | 53 | 45 | 10.0 | 17.0 | 0.00 | 0.00 | 0.00 | 71 | 1013.2 |
| 20260505180958 | 53 | 5 | 11.0 | 17.0 | 0.00 | 0.00 | 0.00 | 71 | 1013.2 |
| 20260505180459 | 54 | 5 | 12.0 | 18.0 | 0.00 | 0.00 | 0.00 | 72 | 1013.3 |
| 20260505180002 | 54 | 15 | 12.0 | 18.0 | 0.00 | 0.00 | 0.00 | 71 | 1013.2 |
| 20260505175459 | 54 | 341 | 11.0 | 15.0 | 0.00 | 0.00 | 0.00 | 71 | 1013.3 |
| 20260505174459 | 54 | 32 | 10.0 | 16.0 | 0.00 | 0.00 | 0.00 | 70 | 1013.3 |
| 20260505174000 | 54 | 355 | 11.0 | 16.0 | 0.00 | 0.00 | 0.00 | 68 | 1013.3 |
| 20260505173000 | 54 | 24 | 13.0 | 17.0 | 0.00 | 0.00 | 0.00 | 67 | 1013.3 |
| 20260505172459 | 54 | 355 | 10.0 | 18.0 | 0.00 | 0.00 | 0.00 | 67 | 1013.2 |
| 20260505172000 | 54 | 5 | 11.0 | 18.0 | 0.00 | 0.00 | 0.00 | 67 | 1013.3 |
| 20260505171459 | 54 | 360 | 11.0 | 20.0 | 0.00 | 0.00 | 0.00 | 67 | 1013.2 |
| 20260505170959 | 55 | 28 | 18.0 | 20.0 | 0.00 | 0.00 | 0.00 | 66 | 1013.2 |
| 20260505170500 | 55 | 16 | 10.0 | 20.0 | 0.00 | 0.00 | 0.00 | 66 | 1013.2 |
| 20260505170000 | 55 | 360 | 11.0 | 20.0 | 0.00 | 0.00 | 0.00 | 65 | 1013.2 |
| 20260505165500 | 55 | 12 | 16.0 | 19.0 | 0.00 | 0.00 | 0.00 | 67 | 1013.2 |
| 20260505164959 | 55 | 11 | 11.0 | 15.0 | 0.00 | 0.00 | 0.00 | 67 | 1013.2 |
| 20260505164501 | 55 | 5 | 12.0 | 15.0 | 0.00 | 0.00 | 0.00 | 66 | 1013.3 |
| 20260505164000 | 55 | 5 | 12.0 | 15.0 | 0.00 | 0.00 | 0.00 | 66 | 1013.3 |
| 20260505163458 | 55 | 28 | 13.0 | 16.0 | 0.00 | 0.00 | 0.00 | 66 | 1013.3 |
| 20260505163000 | 55 | 360 | 8.0 | 18.0 | 0.00 | 0.00 | 0.00 | 65 | 1013.4 |
| 20260505162500 | 55 | 5 | 13.0 | 18.0 | 0.00 | 0.00 | 0.00 | 64 | 1013.3 |
| 20260505161959 | 56 | 22 | 12.0 | 15.0 | 0.00 | 0.00 | 0.00 | 65 | 1013.4 |
| 20260505161459 | 56 | 355 | 8.0 | 14.0 | 0.00 | 0.00 | 0.00 | 65 | 1013.4 |
| 20260505160959 | 56 | 360 | 11.0 | 16.0 | 0.00 | 0.00 | 0.00 | 67 | 1013.3 |
| 20260505160459 | 56 | 5 | 10.0 | 16.0 | 0.00 | 0.00 | 0.00 | 64 | 1013.3 |
| 20260505152500 | 56 | 360 | 10.0 | 19.0 | 0.00 | 0.00 | 0.00 | 67 | 1013.5 |
| 20260505152000 | 56 | 5 | 10.0 | 19.0 | 0.00 | 0.00 | 0.00 | 66 | 1013.5 |
| 20260505151459 | 56 | 39 | 11.0 | 15.0 | 0.00 | 0.00 | 0.00 | 66 | 1013.3 |
| 20260505150958 | 55 | 336 | 14.0 | 16.0 | 0.00 | 0.00 | 0.00 | 66 | 1013.4 |
| 20260505150500 | 56 | 17 | 11.0 | 15.0 | 0.00 | 0.00 | 0.00 | 68 | 1013.4 |
| 20260505140459 | 56 | 30 | 11.0 | 18.0 | 0.00 | 0.00 | 0.00 | 68 | 1013.4 |
| 20260505124958 | 57 | 12 | 10.0 | 17.0 | 0.00 | 0.00 | 0.00 | 66 | 1013.3 |
| 20260505124500 | 57 | 41 | 9.0 | 18.0 | 0.00 | 0.00 | 0.00 | 65 | 1013.3 |
| 20260505124000 | 58 | 355 | 9.0 | 18.0 | 0.00 | 0.00 | 0.00 | 65 | 1013.2 |
| 20260505123500 | 58 | 27 | 11.0 | 17.0 | 0.00 | 0.00 | 0.00 | 66 | 1013.4 |
| 20260505122959 | 57 | 350 | 13.0 | 17.0 | 0.00 | 0.00 | 0.00 | 65 | 1013.3 |
| 20260505122459 | 57 | 44 | 12.0 | 16.0 | 0.00 | 0.00 | 0.00 | 64 | 1013.4 |
| 20260505121959 | 57 | 9 | 10.0 | 15.0 | 0.00 | 0.00 | 0.00 | 65 | 1013.3 |
| 20260505121459 | 57 | 34 | 11.0 | 16.0 | 0.00 | 0.00 | 0.00 | 65 | 1013.2 |
| 20260505121000 | 57 | 355 | 9.0 | 13.0 | 0.00 | 0.00 | 0.00 | 64 | 1013.2 |
| 20260505120003 | 58 | 14 | 9.0 | 18.0 | 0.00 | 0.00 | 0.00 | 63 | 1013.3 |
| 20260505115500 | 58 | 19 | 11.0 | 16.0 | 0.00 | 0.38 | 0.00 | 63 | 1013.3 |
| 20260505115000 | 58 | 12 | 7.0 | 15.0 | 0.00 | 0.38 | 0.00 | 66 | 1013.2 |
| 20260505114001 | 58 | 33 | 11.0 | 19.0 | 0.00 | 0.38 | 0.00 | 65 | 1013.3 |
| 20260505113000 | 57 | 17 | 5.0 | 17.0 | 0.00 | 0.38 | 0.00 | 66 | 1013.5 |
| 20260505112459 | 57 | 39 | 12.0 | 17.0 | 0.00 | 0.38 | 0.00 | 66 | 1013.5 |
| 20260505111959 | 57 | 355 | 11.0 | 15.0 | 0.00 | 0.38 | 0.00 | 65 | 1013.5 |
| 20260505111459 | 57 | 5 | 9.0 | 15.0 | 0.00 | 0.38 | 0.00 | 65 | 1013.5 |
| 20260505110959 | 57 | 340 | 6.0 | 16.0 | 0.00 | 0.38 | 0.00 | 65 | 1013.5 |
| 20260505102000 | 58 | 355 | 9.0 | 16.0 | 0.00 | 0.38 | 0.00 | 66 | 1013.7 |
| 20260505101459 | 58 | 319 | 9.0 | 16.0 | 0.00 | 0.38 | 0.00 | 67 | 1013.6 |
| 20260505101001 | 56 | 24 | 6.0 | 14.0 | 0.00 | 0.38 | 0.00 | 66 | 1013.7 |
| 20260505100458 | 57 | 5 | 11.0 | 15.0 | 0.00 | 0.38 | 0.00 | 64 | 1013.7 |
| 20260505100000 | 58 | 13 | 12.0 | 15.0 | 0.00 | 0.38 | 0.00 | 65 | 1013.6 |
| 20260505095500 | 58 | 37 | 6.0 | 12.0 | 0.00 | 0.38 | 0.00 | 66 | 1013.6 |
| 20260505095000 | 58 | 34 | 6.0 | 15.0 | 0.00 | 0.38 | 0.00 | 66 | 1013.7 |
| 20260505093959 | 57 | 24 | 5.0 | 14.0 | 0.00 | 0.38 | 0.00 | 66 | 1013.7 |
| 20260505093458 | 57 | 16 | 10.0 | 14.0 | 0.00 | 0.38 | 0.00 | 68 | 1013.8 |
| 20260505093000 | 56 | 15 | 5.0 | 15.0 | 0.00 | 0.38 | 0.00 | 67 | 1013.8 |
| 20260505092458 | 56 | 31 | 9.0 | 15.0 | 0.00 | 0.38 | 0.00 | 67 | 1013.7 |
| 20260505091959 | 57 | 32 | 10.0 | 15.0 | 0.00 | 0.38 | 0.00 | 68 | 1013.7 |
| 20260505091500 | 57 | 360 | 8.0 | 14.0 | 0.00 | 0.38 | 0.00 | 68 | 1013.7 |
| 20260505090459 | 57 | 5 | 9.0 | 12.0 | 0.00 | 0.38 | 0.00 | 69 | 1013.8 |
| 20260505085500 | 57 | 5 | 8.0 | 13.0 | 0.00 | 0.38 | 0.00 | 70 | 1013.9 |
| 20260505084955 | 57 | 17 | 12.0 | 13.0 | 0.00 | 0.38 | 0.00 | 70 | 1013.7 |
| 20260505084456 | 56 | 5 | 5.0 | 13.0 | 0.00 | 0.38 | 0.00 | 69 | 1013.8 |
| 20260505083956 | 56 | 10 | 9.0 | 13.0 | 0.00 | 0.38 | 0.00 | 70 | 1013.8 |
| 20260505083455 | 56 | 355 | 11.0 | 11.0 | 0.00 | 0.38 | 0.00 | 73 | 1013.8 |
| 20260505082956 | 56 | 54 | 7.0 | 12.0 | 0.00 | 0.38 | 0.00 | 74 | 1013.8 |
| 20260505082456 | 56 | 37 | 6.0 | 13.0 | 0.00 | 0.38 | 0.00 | 75 | 1013.9 |
| 20260505081956 | 56 | 19 | 10.0 | 12.0 | 0.00 | 0.38 | 0.00 | 79 | 1013.9 |
| 20260505081457 | 55 | 355 | 6.0 | 7.0 | 0.00 | 0.38 | 0.00 | 80 | 1013.9 |
| 20260505080955 | 55 | 34 | 3.0 | 7.0 | 0.00 | 0.38 | 0.00 | 82 | 1013.9 |
| 20260505080456 | 55 | 10 | 4.0 | 7.0 | 0.00 | 0.38 | 0.00 | 83 | 1013.9 |
| 20260505075959 | 54 | 5 | 5.0 | 8.0 | 0.00 | 0.38 | 0.00 | 85 | 1013.9 |
| 20260505075458 | 53 | 9 | 5.0 | 8.0 | 0.00 | 0.39 | 0.00 | 85 | 1013.8 |
| 20260505074958 | 52 | 50 | 2.0 | 8.0 | 0.00 | 0.39 | 0.00 | 85 | 1013.9 |
| 20260505074457 | 52 | 32 | 3.0 | 8.0 | 0.00 | 0.39 | 0.00 | 85 | 1014.0 |
| 20260505073957 | 52 | 18 | 4.0 | 10.0 | 0.00 | 0.39 | 0.00 | 85 | 1013.9 |
| 20260505072458 | 52 | 28 | 8.0 | 12.0 | 0.00 | 0.39 | 0.00 | 85 | 1014.0 |
| 20260505071957 | 52 | 36 | 9.0 | 12.0 | 0.00 | 0.39 | 0.00 | 85 | 1014.0 |
| 20260505070957 | 52 | 5 | 9.0 | 12.0 | 0.00 | 0.39 | 0.00 | 86 | 1014.0 |
| 20260505070458 | 51 | 348 | 5.0 | 14.0 | 0.00 | 0.39 | 0.00 | 86 | 1014.0 |
| 20260505065958 | 51 | 355 | 8.0 | 14.0 | 0.00 | 0.39 | 0.00 | 86 | 1013.9 |
| 20260505065455 | 51 | 19 | 8.0 | 11.0 | 0.00 | 0.39 | 0.00 | 86 | 1013.9 |
| 20260505064956 | 51 | 5 | 6.0 | 11.0 | 0.00 | 0.39 | 0.00 | 86 | 1013.9 |
| 20260505064456 | 51 | 355 | 9.0 | 10.0 | 0.00 | 0.39 | 0.00 | 86 | 1013.9 |
| 20260505063955 | 51 | 5 | 8.0 | 10.0 | 0.00 | 0.39 | 0.00 | 86 | 1014.0 |
| 20260505062956 | 51 | 13 | 9.0 | 12.0 | 0.00 | 0.39 | 0.00 | 87 | 1013.8 |
| 20260505062456 | 51 | 17 | 7.0 | 12.0 | 0.00 | 0.39 | 0.00 | 87 | 1013.9 |
| 20260505061956 | 51 | 15 | 8.0 | 13.0 | 0.00 | 0.39 | 0.00 | 87 | 1013.9 |
| 20260505060956 | 51 | 26 | 5.0 | 14.0 | 0.00 | 0.39 | 0.00 | 87 | 1013.7 |
| 20260505060456 | 51 | 28 | 9.0 | 14.0 | 0.00 | 0.39 | 0.00 | 87 | 1013.7 |
| 20260505055959 | 50 | 5 | 10.0 | 13.0 | 0.00 | 0.39 | 0.00 | 87 | 1013.7 |
| 20260505055456 | 50 | 5 | 9.0 | 16.0 | 0.00 | 0.39 | 0.00 | 88 | 1013.6 |
| 20260505054956 | 50 | 355 | 12.0 | 16.0 | 0.00 | 0.39 | 0.00 | 88 | 1013.6 |
| 20260505054456 | 50 | 11 | 7.0 | 13.0 | 0.00 | 0.39 | 0.00 | 88 | 1013.6 |
| 20260505053956 | 50 | 22 | 8.0 | 13.0 | 0.00 | 0.39 | 0.00 | 88 | 1013.6 |
| 20260505053456 | 50 | 360 | 8.0 | 12.0 | 0.00 | 0.39 | 0.00 | 88 | 1013.6 |
| 20260505052956 | 50 | 355 | 5.0 | 14.0 | 0.00 | 0.39 | 0.00 | 88 | 1013.8 |
| 20260505052456 | 50 | 9 | 7.0 | 14.0 | 0.00 | 0.39 | 0.00 | 88 | 1013.7 |
| 20260505051956 | 50 | 351 | 9.0 | 12.0 | 0.00 | 0.39 | 0.00 | 88 | 1013.6 |
| 20260505051456 | 51 | 348 | 4.0 | 10.0 | 0.00 | 0.39 | 0.00 | 87 | 1013.7 |
| 20260505050957 | 51 | 342 | 9.0 | 12.0 | 0.00 | 0.39 | 0.00 | 87 | 1013.7 |
| 20260505041455 | 51 | 337 | 8.0 | 8.0 | 0.00 | 0.41 | 0.00 | 87 | 1013.5 |
| 20260505040957 | 51 | 18 | 4.0 | 10.0 | 0.00 | 0.41 | 0.00 | 87 | 1013.6 |
| 20260505040456 | 51 | 360 | 3.0 | 10.0 | 0.00 | 0.41 | 0.00 | 88 | 1013.5 |
| 20260505035455 | 51 | 345 | 0.0 | 4.0 | 0.00 | 0.41 | 0.00 | 87 | 1013.6 |
| 20260505034956 | 51 | 342 | 1.0 | 5.0 | 0.00 | 0.41 | 0.00 | 88 | 1013.5 |
| 20260505034457 | 51 | 341 | 4.0 | 8.0 | 0.00 | 0.41 | 0.00 | 87 | 1013.5 |
| 20260505033456 | 51 | 342 | 1.0 | 4.0 | 0.00 | 0.41 | 0.00 | 87 | 1013.5 |
| 20260505032956 | 51 | 306 | 2.0 | 4.0 | 0.00 | 0.41 | 0.00 | 87 | 1013.6 |
| 20260505032456 | 51 | 298 | 3.0 | 4.0 | 0.00 | 0.41 | 0.00 | 87 | 1013.5 |
| 20260505031956 | 51 | 334 | 0.0 | 0.0 | 0.00 | 0.41 | 0.00 | 87 | 1013.5 |
| 20260505031457 | 51 | 172 | 0.0 | 0.0 | 0.00 | 0.41 | 0.00 | 87 | 1013.4 |
| 20260505030956 | 51 | 172 | 0.0 | 1.0 | 0.00 | 0.41 | 0.00 | 87 | 1013.4 |
| 20260505030456 | 51 | 153 | 0.0 | 3.0 | 0.00 | 0.41 | 0.00 | 87 | 1013.4 |
| 20260505025958 | 50 | 344 | 2.0 | 3.0 | 0.00 | 0.41 | 0.00 | 87 | 1013.5 |
| 20260505024456 | 50 | 344 | 3.0 | 5.0 | 0.00 | 0.41 | 0.00 | 86 | 1013.4 |
| 20260505023958 | 50 | 313 | 3.0 | 5.0 | 0.00 | 0.41 | 0.00 | 86 | 1013.4 |
| 20260505023456 | 50 | 344 | 2.0 | 4.0 | 0.00 | 0.41 | 0.00 | 86 | 1013.5 |
| 20260505022958 | 50 | 329 | 3.0 | 4.0 | 0.00 | 0.41 | 0.00 | 86 | 1013.4 |
| 20260505022458 | 50 | 346 | 3.0 | 4.0 | 0.00 | 0.41 | 0.00 | 86 | 1013.5 |
| 20260505021958 | 50 | 355 | 3.0 | 4.0 | 0.00 | 0.41 | 0.00 | 86 | 1013.5 |
| 20260505021457 | 50 | 360 | 3.0 | 4.0 | 0.00 | 0.41 | 0.00 | 86 | 1013.5 |
| 20260505020957 | 51 | 355 | 2.0 | 4.0 | 0.00 | 0.41 | 0.00 | 86 | 1013.3 |
| 20260505020457 | 50 | 336 | 4.0 | 4.0 | 0.00 | 0.41 | 0.00 | 86 | 1013.4 |
| 20260505015958 | 51 | 349 | 2.0 | 3.0 | 0.00 | 0.41 | 0.00 | 86 | 1013.4 |
| 20260505015456 | 51 | 326 | 0.0 | 3.0 | 0.00 | 0.41 | 0.00 | 86 | 1013.5 |
| 20260505014956 | 51 | 325 | 2.0 | 3.0 | 0.00 | 0.41 | 0.00 | 86 | 1013.5 |
| 20260505014458 | 51 | 336 | 1.0 | 4.0 | 0.00 | 0.41 | 0.00 | 86 | 1013.5 |
| 20260505013957 | 51 | 322 | 4.0 | 4.0 | 0.00 | 0.41 | 0.00 | 86 | 1013.6 |
| 20260505013457 | 51 | 322 | 1.0 | 4.0 | 0.00 | 0.41 | 0.00 | 86 | 1013.7 |
| 20260505012955 | 51 | 329 | 2.0 | 3.0 | 0.00 | 0.41 | 0.00 | 86 | 1013.7 |
| 20260505011456 | 51 | 288 | 2.0 | 4.0 | 0.00 | 0.41 | 0.00 | 86 | 1013.7 |
| 20260505010957 | 51 | 298 | 1.0 | 3.0 | 0.00 | 0.41 | 0.00 | 86 | 1013.8 |
| 20260505010456 | 51 | 360 | 0.0 | 2.0 | 0.00 | 0.41 | 0.00 | 86 | 1013.8 |
| 20260505005959 | 51 | 53 | 0.0 | 4.0 | 0.00 | 0.41 | 0.00 | 86 | 1013.8 |
| 20260505005456 | 51 | 19 | 1.0 | 4.0 | 0.00 | 0.42 | 0.00 | 86 | 1013.9 |
| 20260505004956 | 51 | 351 | 2.0 | 4.0 | 0.00 | 0.42 | 0.00 | 85 | 1013.9 |
| 20260505004456 | 51 | 330 | 1.0 | 4.0 | 0.00 | 0.42 | 0.00 | 85 | 1013.8 |
| 20260505003958 | 51 | 5 | 2.0 | 4.0 | 0.00 | 0.42 | 0.00 | 85 | 1013.9 |
| 20260505003456 | 51 | 311 | 2.0 | 3.0 | 0.00 | 0.42 | 0.00 | 85 | 1013.9 |
| 20260505002955 | 51 | 342 | 0.0 | 2.0 | 0.00 | 0.42 | 0.00 | 85 | 1013.9 |
| 20260505002456 | 51 | 346 | 1.0 | 2.0 | 0.00 | 0.42 | 0.00 | 85 | 1013.9 |
| 20260505001456 | 51 | 346 | 0.0 | 1.0 | 0.00 | 0.42 | 0.00 | 85 | 1014.0 |
| 20260505000958 | 51 | 346 | 0.0 | 2.0 | 0.00 | 0.42 | 0.00 | 85 | 1014.0 |
| 20260505000457 | 51 | 346 | 1.0 | 2.0 | 0.00 | 0.42 | 0.00 | 85 | 1014.0 |
| 20260504235958 | 51 | 346 | 1.0 | 2.0 | 0.00 | 0.42 | 0.00 | 85 | 1014.0 |
| 20260504235457 | 51 | 346 | 2.0 | 2.0 | 0.00 | 0.42 | 0.00 | 85 | 1014.1 |
| 20260504234958 | 51 | 346 | 1.0 | 3.0 | 0.00 | 0.42 | 0.00 | 85 | 1014.0 |
| 20260504234458 | 51 | 344 | 2.0 | 3.0 | 0.00 | 0.42 | 0.00 | 85 | 1014.0 |